TimeAST,TemperatureF,Dew PointF,Humidity,Sea Level PressureIn,VisibilityMPH,Wind Direction,Wind SpeedMPH,Gust SpeedMPH,PrecipitationIn,Events,Conditions,WindDirDegrees,DateUTC
12:00 AM,82.4,77.0,84,29.98,-9999.0,North,-9999.0,-,N/A,,Unknown,0,2012-07-25 04:00:00
1:00 AM,80.6,75.2,84,29.95,6.2,East,18.4,-,N/A,,Scattered Clouds,80,2012-07-25 05:00:00
2:00 AM,81,75,78,,22,East,18.4,,,,Clear,90,2012-07-25 06:00:00
2:00 AM,80.6,75.2,84,29.95,-9999.0,North,-9999.0,-,N/A,,Unknown,0,2012-07-25 06:00:00
5:00 AM,81,76,80,,,East,18.4,,,,Clear,80,2012-07-25 09:00:00
5:00 AM,80.6,75.2,84,29.95,-9999.0,North,-9999.0,-,N/A,,Unknown,0,2012-07-25 09:00:00
6:00 AM,80.6,75.2,84,29.95,-9999.0,North,-9999.0,-,N/A,,Unknown,0,2012-07-25 10:00:00
7:00 AM,82.4,77.0,84,29.95,-9999.0,North,-9999.0,-,N/A,,Unknown,0,2012-07-25 11:00:00
8:00 AM,84,76,72,30.00,22,East,17.3,,,,Partly Cloudy,100,2012-07-25 12:00:00
8:00 AM,84.2,77.0,79,29.98,6.2,East,17.3,-,N/A,,Scattered Clouds,100,2012-07-25 12:00:00
9:00 AM,86.0,77.0,74,29.98,6.2,East,19.6,-,N/A,,Scattered Clouds,100,2012-07-25 13:00:00
10:00 AM,86.0,77.0,74,30.01,6.2,East,19.6,-,N/A,,Scattered Clouds,100,2012-07-25 14:00:00
11:00 AM,87,76,63,30.01,22,East,21.9,,,,Partly Cloudy,100,2012-07-25 15:00:00
11:00 AM,87.8,77.0,70,29.98,6.2,East,21.9,-,N/A,,Scattered Clouds,100,2012-07-25 15:00:00
12:00 PM,87.8,77.0,70,29.98,-9999.0,North,-9999.0,-,N/A,,Unknown,0,2012-07-25 16:00:00
1:00 PM,87.8,77.0,70,29.98,6.2,East,23.0,-,N/A,,Scattered Clouds,100,2012-07-25 17:00:00
2:00 PM,87,77,64,,22,East,18.4,,,,Clear,90,2012-07-25 18:00:00
2:00 PM,87.8,77.0,70,29.95,6.2,East,18.4,-,N/A,,Scattered Clouds,80,2012-07-25 18:00:00
3:00 PM,87.8,75.2,66,29.92,6.2,East,24.2,-,N/A,,Partly Cloudy,100,2012-07-25 19:00:00
4:00 PM,87.8,75.2,66,29.89,6.2,East,23.0,-,N/A,,Partly Cloudy,100,2012-07-25 20:00:00
5:00 PM,87,77,64,29.91,22,East,23.0,,,,Partly Cloudy,100,2012-07-25 21:00:00
5:00 PM,87.8,77.0,70,29.89,6.2,East,23.0,-,N/A,,Scattered Clouds,100,2012-07-25 21:00:00
6:00 PM,86.0,75.2,70,29.89,6.2,East,24.2,-,N/A,,Scattered Clouds,100,2012-07-25 22:00:00
7:00 PM,84.2,75.2,74,29.92,6.2,East,21.9,-,N/A,,Scattered Clouds,100,2012-07-25 23:00:00
8:00 PM,83,74,69,,6,East,18.4,,,,Clear,90,2012-07-26 00:00:00
8:00 PM,82.4,75.2,79,29.92,6.2,East,18.4,-,N/A,,Scattered Clouds,90,2012-07-26 00:00:00
9:00 PM,82.4,75.2,79,29.95,6.2,East,18.4,-,N/A,,Scattered Clouds,80,2012-07-26 01:00:00
10:00 PM,82.4,73.4,74,29.98,6.2,East,18.4,-,N/A,,Scattered Clouds,80,2012-07-26 02:00:00
11:00 PM,82,75,73,,,East,35.8,,,,Clear,80,2012-07-26 03:00:00
11:00 PM,82.4,75.2,79,29.98,-9999.0,East,18.4,-,N/A,,Unknown,80,2012-07-26 03:00:00